When you browse on this site, cookies collect data to enhance your experience and personalize the content and advertising you see.
Visit our Privacy Policy to learn more. By continuing to use the site, you agree to this use of cookies and data.
  • In Netherlands
  • List of Countries
  • For 7 days
  • Water Temperature
  • Weather Map
  • Weather Widgets
  • user-avatar
    Login

    Hourly Weather Middlesbrough

    Today, 24 August, Saturday

    Time Temperature Precipitation Wind Pressure Humidity
    00:00 +18°C° 0 mm 2 mps 764 mmHg 88%
    01:00 +17°C° 0 mm 2 mps 764 mmHg 89%
    02:00 +17°C° 0 mm 2 mps 764 mmHg 90%
    03:00 +17°C° 0 mm 2 mps 764 mmHg 91%
    04:00 +17°C° 0 mm 2 mps 763 mmHg 91%
    05:00 +17°C° 0 mm 2 mps 763 mmHg 92%
    06:00 +17°C° 0 mm 2 mps 763 mmHg 92%
    07:00 +19°C° 0 mm 2 mps 763 mmHg 84%
    08:00 +20°C° 0 mm 3 mps 763 mmHg 77%
    09:00 +22°C° 0 mm 3 mps 763 mmHg 70%
    10:00 +23°C° 0 mm 4 mps 763 mmHg 64%
    11:00 +25°C° 0 mm 4 mps 763 mmHg 58%
    12:00 +26°C° 0 mm 4 mps 763 mmHg 52%
    13:00 +26°C° 0 mm 4 mps 763 mmHg 51%
    14:00 +26°C° 0 mm 5 mps 763 mmHg 49%
    15:00 +27°C° 0 mm 5 mps 763 mmHg 48%
    16:00 +26°C° 0 mm 4 mps 762 mmHg 52%
    17:00 +25°C° 0 mm 4 mps 762 mmHg 57%
    18:00 +24°C° 0 mm 3 mps 762 mmHg 61%
    19:00 +22°C° 0 mm 3 mps 762 mmHg 66%
    20:00 +20°C° 0 mm 3 mps 762 mmHg 71%
    21:00 +18°C° 0 mm 3 mps 762 mmHg 75%
    22:00 +18°C° 0 mm 2 mps 762 mmHg 77%
    23:00 +18°C° 0 mm 2 mps 762 mmHg 78%

    Tomorrow, 25 August, Sunday

    Time Temperature Precipitation Wind Pressure Humidity
    00:00 +17°C° 0 mm 2 mps 762 mmHg 80%
    01:00 +18°C° 0 mm 1 mps 762 mmHg 81%
    02:00 +18°C° 0 mm 1 mps 762 mmHg 83%
    03:00 +18°C° 0 mm 1 mps 762 mmHg 84%
    04:00 +18°C° 0 mm 1 mps 762 mmHg 84%
    05:00 +18°C° 0 mm 1 mps 762 mmHg 84%
    06:00 +18°C° 0 mm 1 mps 762 mmHg 83%
    07:00 +20°C° 0 mm 1 mps 762 mmHg 77%
    08:00 +22°C° 0 mm 1 mps 762 mmHg 71%
    09:00 +23°C° 0 mm 1 mps 763 mmHg 65%
    10:00 +25°C° 0 mm 2 mps 763 mmHg 60%
    11:00 +26°C° 0 mm 2 mps 763 mmHg 56%
    12:00 +27°C° 0 mm 3 mps 763 mmHg 51%
    13:00 +27°C° 0 mm 3 mps 763 mmHg 51%
    14:00 +28°C° 0 mm 3 mps 763 mmHg 50%
    15:00 +28°C° 0 mm 3 mps 762 mmHg 49%
    16:00 +27°C° 0 mm 3 mps 762 mmHg 55%
    17:00 +25°C° 0 mm 3 mps 762 mmHg 61%
    18:00 +24°C° 0 mm 3 mps 762 mmHg 67%
    19:00 +22°C° 0 mm 3 mps 763 mmHg 70%
    20:00 +21°C° 0 mm 3 mps 763 mmHg 72%
    21:00 +19°C° 0 mm 3 mps 763 mmHg 75%
    22:00 +19°C° 0 mm 2 mps 763 mmHg 76%
    23:00 +18°C° 0 mm 2 mps 763 mmHg 77%

    Day after tomorrow, 26 August, Monday

    Time Temperature Precipitation Wind Pressure Humidity
    00:00 +18°C° 0 mm 2 mps 763 mmHg 79%
    01:00 +18°C° 0 mm 2 mps 763 mmHg 79%
    02:00 +17°C° 0 mm 2 mps 763 mmHg 80%
    03:00 +17°C° 0 mm 2 mps 762 mmHg 81%
    04:00 +17°C° 0 mm 2 mps 762 mmHg 82%
    05:00 +17°C° 0 mm 2 mps 762 mmHg 83%
    06:00 +17°C° 0 mm 2 mps 762 mmHg 84%
    07:00 +19°C° 0 mm 2 mps 762 mmHg 78%
    08:00 +21°C° 0 mm 3 mps 762 mmHg 73%
    09:00 +24°C° 0 mm 3 mps 762 mmHg 67%
    10:00 +25°C° 0 mm 4 mps 762 mmHg 63%
    11:00 +26°C° 0 mm 4 mps 762 mmHg 60%
    12:00 +27°C° 0 mm 5 mps 762 mmHg 56%
    13:00 +28°C° 0 mm 5 mps 761 mmHg 54%
    14:00 +28°C° 0 mm 5 mps 761 mmHg 52%
    15:00 +29°C° 0 mm 4 mps 761 mmHg 50%
    16:00 +28°C° 0 mm 4 mps 761 mmHg 55%
    17:00 +27°C° 0 mm 4 mps 761 mmHg 61%
    18:00 +26°C° 0 mm 3 mps 760 mmHg 66%
    19:00 +24°C° 0 mm 3 mps 761 mmHg 69%
    20:00 +23°C° 0 mm 2 mps 761 mmHg 73%
    21:00 +20°C° 0 mm 2 mps 761 mmHg 77%
    22:00 +21°C° 0 mm 1 mps 761 mmHg 77%
    23:00 +21°C° 0 mm 1 mps 761 mmHg 78%

    27 August, Tuesday

    Time Temperature Precipitation Wind Pressure Humidity
    00:00 +21°C° 0 mm 1 mps 761 mmHg 79%
    01:00 +20°C° 0 mm 1 mps 760 mmHg 80%
    02:00 +20°C° 0 mm 1 mps 760 mmHg 81%
    03:00 +20°C° 0 mm 1 mps 760 mmHg 83%
    04:00 +20°C° 0.1 mm 1 mps 760 mmHg 83%
    05:00 +20°C° 0.1 mm 1 mps 760 mmHg 84%
    06:00 +20°C° 0.1 mm 1 mps 760 mmHg 85%
    07:00 +21°C° 0 mm 1 mps 760 mmHg 80%
    08:00 +22°C° 0 mm 1 mps 759 mmHg 76%
    09:00 +23°C° 0 mm 1 mps 759 mmHg 72%
    10:00 +24°C° 0 mm 1 mps 759 mmHg 71%
    11:00 +24°C° 0 mm 1 mps 759 mmHg 71%
    12:00 +24°C° 0 mm 1 mps 759 mmHg 70%
    13:00 +24°C° 0 mm 2 mps 759 mmHg 71%
    14:00 +24°C° 0 mm 2 mps 759 mmHg 72%
    15:00 +24°C° 0 mm 2 mps 759 mmHg 73%
    16:00 +22°C° 0 mm 3 mps 759 mmHg 74%
    17:00 +21°C° 0 mm 3 mps 759 mmHg 75%
    18:00 +20°C° 0 mm 3 mps 759 mmHg 76%
    19:00 +19°C° 0 mm 3 mps 759 mmHg 76%
    20:00 +18°C° 0 mm 3 mps 759 mmHg 76%
    21:00 +17°C° 0 mm 3 mps 759 mmHg 76%
    22:00 +17°C° 0 mm 2 mps 759 mmHg 74%
    23:00 +17°C° 0 mm 2 mps 759 mmHg 73%

    28 August, Wednesday

    Time Temperature Precipitation Wind Pressure Humidity
    00:00 +17°C° 0 mm 2 mps 759 mmHg 71%
    01:00 +17°C° 0 mm 2 mps 759 mmHg 73%
    02:00 +16°C° 0 mm 2 mps 759 mmHg 75%
    03:00 +16°C° 0 mm 3 mps 759 mmHg 76%
    04:00 +16°C° 0 mm 2 mps 759 mmHg 79%
    05:00 +16°C° 0 mm 2 mps 759 mmHg 81%
    06:00 +16°C° 0 mm 2 mps 759 mmHg 83%
    07:00 +17°C° 0 mm 2 mps 759 mmHg 80%
    08:00 +18°C° 0 mm 2 mps 759 mmHg 78%
    09:00 +19°C° 0 mm 2 mps 759 mmHg 75%
    10:00 +20°C° 0 mm 2 mps 759 mmHg 75%
    11:00 +20°C° 0 mm 3 mps 759 mmHg 75%
    12:00 +20°C° 0 mm 3 mps 758 mmHg 75%
    13:00 +19°C° 0 mm 3 mps 758 mmHg 76%
    14:00 +19°C° 0 mm 3 mps 758 mmHg 76%
    15:00 +19°C° 0 mm 3 mps 758 mmHg 77%
    16:00 +19°C° 0 mm 3 mps 758 mmHg 78%
    17:00 +19°C° 0 mm 3 mps 758 mmHg 79%
    18:00 +19°C° 0 mm 3 mps 758 mmHg 80%
    19:00 +18°C° 0 mm 3 mps 759 mmHg 82%
    20:00 +17°C° 0 mm 3 mps 759 mmHg 84%
    21:00 +16°C° 0 mm 3 mps 759 mmHg 86%
    22:00 +14°C° 0 mm 3 mps 759 mmHg 87%
    23:00 +13°C° 0 mm 3 mps 759 mmHg 88%

    29 August, Thursday

    Time Temperature Precipitation Wind Pressure Humidity
    00:00 +12°C° 0 mm 3 mps 760 mmHg 89%
    01:00 +11°C° 0 mm 3 mps 760 mmHg 88%
    02:00 +11°C° 0 mm 3 mps 760 mmHg 87%
    03:00 +10°C° 0 mm 3 mps 760 mmHg 86%
    04:00 +10°C° 0 mm 3 mps 760 mmHg 87%
    05:00 +10°C° 0 mm 3 mps 760 mmHg 87%
    06:00 +10°C° 0 mm 2 mps 760 mmHg 87%
    07:00 +12°C° 0 mm 3 mps 760 mmHg 80%
    08:00 +14°C° 0 mm 3 mps 760 mmHg 74%
    09:00 +16°C° 0 mm 3 mps 760 mmHg 68%
    10:00 +17°C° 0 mm 3 mps 760 mmHg 65%
    11:00 +18°C° 0 mm 4 mps 760 mmHg 63%
    12:00 +18°C° 0 mm 4 mps 760 mmHg 60%
    13:00 +19°C° 0 mm 4 mps 760 mmHg 59%
    14:00 +19°C° 0 mm 4 mps 759 mmHg 58%
    15:00 +19°C° 0 mm 4 mps 759 mmHg 57%
    16:00 +19°C° 0 mm 4 mps 759 mmHg 62%
    17:00 +18°C° 0 mm 3 mps 759 mmHg 66%
    18:00 +17°C° 0 mm 3 mps 759 mmHg 71%
    19:00 +16°C° 0 mm 3 mps 759 mmHg 74%
    20:00 +14°C° 0 mm 3 mps 759 mmHg 77%
    21:00 +13°C° 0 mm 3 mps 759 mmHg 80%
    22:00 +13°C° 0 mm 3 mps 759 mmHg 81%
    23:00 +13°C° 0 mm 3 mps 759 mmHg 82%
    Show more